Location: Bergfeld
(52.0500°N, 11.7833°E)
Time: 04:23:57
(UTC+00:00)

Meteor 2-2 Rocket - Pass Details

Date: 17 February 2020
Orbit: 852 x 929 km, 81.3° (Epoch: 29 March)

Event Time Altitude Azimuth Distance (km) Brightness Sun altitude
Rises 05:16:09 0° 202° (SSW) 3,561 7.3 -11.2°
Reaches altitude 10° 05:18:39 10° 205° (SSW) 2,626 6.6 -10.8°
Maximum altitude 05:24:37 63° 287° (WNW) 1,036 4.4 -9.9°
Drops below altitude 10° 05:30:38 10° 8° (N) 2,641 6.8 -9.0°
Sets 05:33:09 0° 12° (NNE) 3,583 7.5 -8.6°
